STARLINK-38112, 100181

Orbit data source: Space-Track

STARLINK-38112, 100181 is a payload satellite owned by SpaceX/Seattle (US) in SSO that was launched on Sat, 01 Aug 2026 UTC launched from the Air Force Western Test Range (AFWTR). Payload-class satellites include a variety of spacecraft equipped with specific instruments for various scientific and technological missions. These include communications satellites like Starlink; space stations such as the ISS; scientific satellites like the Hubble; Earth observation satellites from companies like Planet Labs, Umbra, and HawkEye 360; GPS; miniature CubeSats for education and research; and military/defense satellites.

Loading next visibility...
Identifier
100181, 2026-175C
Orbit
SSO
Country
Flag of USUS
Related business
Manufacturer
SpaceX/Seattle
Mission
Operational spacecraft
Bus & Motor
STARLINK V2MO, Unknown motor
Mass
575 kg wet, ~530 kg dry
Launch date (UTC)
2026-08-01 (2 months ago)
Launch vehicle
Unknown
Launch site
Air Force Western Test Range (AFWTR)
Object type
Payload
Rocket body
Debris
Shape & HBR
BOX + PAN, 17.7 m
Radar Cross Section
Large (>1 m²)

Expand to show TLE details & history
Last TLE update: 8 hours ago

TLE from 8 hours ago
0 STARLINK-38112
1 A0181U 26175C   26263.86911015 -.00136398  00000-0 -16112-2 0  9996
2 A0181  97.2843 106.3135 0001737  79.2551 280.8903 15.61689471  9233
Epoch: 2026-09-20T20:51Z
TLE epoch observation values (Epoch: 2026-09-20T20:51:31.116Z)
Latitude
Longitude
153.67674°
Altitude
385.705 km
Speed
7.679 km/s
True Right ascension
07h 05m 15s
True Declination
0° 00' 00"
Sunlit
Object was in daylight at epoch
Visualization orbit readout
Latitude
Unknown
Longitude
Unknown
Altitude
Unknown
Speed
Unknown
Apparent Right ascension
Unknown
Apparent Declination
Unknown
Sunlit
N/A
Visualization observer readout
Local Sidereal Time
22:06:41
Azimuth
Unknown
Elevation
Unknown
Doppler factor
Unknown
Orbital elements
Apogee altitude
380.856 km
Perigee altitude
378.508 km
Semi-major axis
6,757.819 km
Eccentricity
0.00017
Inclination
97.2843°
RAAN
106.3135°
Arg. of periapsis
79.2551°
True anomaly
280.87075°
Mean anomaly
280.8903°
Eccentric anomaly
280.88053°
Mean motion
3.90691 °/min
Orbital period
92.14 mins
BSTAR
-0.0016112
Loading maneuver chart data...
Computing Atmospheric mass density...
Loading historical data...
Loading historical data...
Loading historical data...
Loading historical data...
Loading historical data...
Loading historical data...
Loading historical data...

Documentation

Showing up to 5 results
|